Regional Weather Roundup
Issued by NWS Northern Indiana

Home | Current Version | Previous Version | Text Only | Print | Product List | Glossary Off
Versions: 1 2 3 4 5 6 7 8 9 10 11 12 13 14 15 16 17 18 19 20 21 22 23 24 25 26 27 28 29 30 31 32 33 34 35 36 37 38 39 40 41 42 43 44 45 46 47 48 49 50

000
ASUS43 KIWX 240800
RWRIWX

KIWX WEATHER ROUNDUP
NATIONAL WEATHER SERVICE NORTHERN INDIANA
400 AM EDT WED AUG 24 2016

NOTE: "FAIR" INDICATES FEW OR NO CLOUDS BELOW 12,000 FEET WITH NO
SIGNIFICANT WEATHER AND/OR OBSTRUCTIONS TO VISIBILITY.

* THESE STATIONS ARE NOT UNDER NWS QUALITY CONTROL. THEY ALSO MAY NOT
  REPORT WEATHER SUCH AS PRECIPITATION OR FOG.

INZ001>027-240900-
NORTHERN INDIANA

CITY           SKY/WX    TMP DP  RH WIND       PRES   REMARKS
KNOX*          MOCLDY    68  45  42 S8        30.12S
SOUTH BEND     CLOUDY    70  61  73 S12       30.12F
GOSHEN         MOCLDY    66  59  78 S6        30.14S
MONTICELLO*    CLOUDY    68  60  74 SE3       30.13S
ANGOLA*        CLEAR     63  61  94 S3        30.16S
FORT WAYNE     PTCLDY    61  58  90 SE5       30.16S
PERU/GRISSOM   CLOUDY    68  63  85 S6        30.14S

$$
INZ028>050-240900-
CENTRAL INDIANA

CITY           SKY/WX    TMP DP  RH WIND       PRES   REMARKS
LAFAYETTE      CLOUDY    69  64  84 S3        30.13R
KOKOMO*        CLOUDY    66  59  77 S5        30.16S
MUNCIE*        CLOUDY    70  61  73 S7        30.17R
INDIANAPOLIS   CLOUDY    71  63  75 S8        30.14F

$$
MIZ043>046-050>051-056>058-064>065-071>073-077>080-240900-
SOUTHWEST LOWER MICHIGAN

CITY           SKY/WX    TMP DP  RH WIND       PRES   REMARKS
BATTLE CREEK   CLEAR     62  60  93 S9        30.14S
BENTON HARBOR  CLOUDY    69  61  75 S7        30.10S
COLDWATER*     PTCLDY    63  61  93 S5        30.16R
HILLSDALE*     CLEAR     60  58  91 S3        30.16S
HOLLAND        MOCLDY    65  61  87 SE8       30.10S
GRAND RAPIDS   CLEAR     65  59  81 S8        30.12R
KALAMAZOO      PTCLDY    66  59  78 S8        30.13S
STURGIS*       MOCLDY    64  59  82 S6        30.14S
THREE RIVERS*  FAIR      65  61  88 S6        30.14S

$$
OHZ001>008-015>018-024>025-240900-
NORTHWEST OHIO

CITY           SKY/WX    TMP DP  RH WIND       PRES   REMARKS
DEFIANCE       PTCLDY    66  58  75 S3        30.16F
FINDLAY        PTCLDY    64  58  80 S5        30.17F
TOLEDO EXPRESS PTCLDY    62  61  96 CALM      30.16F
TOLEDO METCALF PTCLDY    64  60  87 CALM      30.18F
LIMA           CLOUDY    63  60  90 S6        30.18F

$$
AND FOR LAKE MICHIGAN COASTAL AND OPEN LAKE BUOY OBSERVATIONS

STATION/POSITION TEMP    WIND        PRES    VSBY  WAVE
                 AIR SEA DIR/SP/G                  HT/PER
                 (F)     (DEG/KT/KT) (MB)    (MI)  (FT/S)
CALUMET HARBOR    73     180/ 11/ 16 1017.9F
MICHIGAN CITY     71     160/ 11/ 14   N/A
BURNS HARBOR      71     190/  9/ 21 1019.3F
SAINT JOSEPH      69     180/  2/  6 1019.3F
SOUTH LAKE BUOY   75 75  170/ 19/ 25 1016.8          4/ 5
4 MI NW BRIDGMAN  71 75  160/ 14/ 17 1019.1F         1/ 3
MICHIGAN CITY     72 73  190/ 12/ 16   N/A           1/ 2

$$
&&




USA.gov is the U.S. government's official web portal to all federal, state and local government web resources and services.